Athens, OH

11:29 PM EST on November 16, 2019 (GMT -0500)
Ohio University

Weather History for KUNI - September, 2019

Change the Weather History Date:

Tuesday, September 24, 2019

  Actual Average (KPKB) Record (KPKB)
Temperature  
Mean Temperature 60 °F -  
Max Temperature 75 °F 70 °F 92 °F (2007)
Min Temperature 46 °F 51 °F 36 °F (1989)
Degree Days  
Heating Degree Days 4    
Growing Degree Days 10 (Base 50)    
Moisture  
Dew Point 50 °F    
Average Humidity 75    
Maximum Humidity 100    
Minimum Humidity 32    
Precipitation  
Precipitation 0.00 in - - ()
Sea Level Pressure  
Sea Level Pressure 30.00 in    
Wind  
Wind Speed 1 mph (NW)    
Max Wind Speed 7 mph    
Max Gust Speed -    
Visibility 9 miles    
Events      
Averages and records for this station are not official NWS values.
T = Trace of Precipitation, MM = Missing Value Source: NWS Daily Summary

Daily Weather History Graph

Daily Weather History Graph

Search for Another Location

Airport or City:

Astronomy

Sep. 24, 2019 Rise Set
Actual Time 7:18 AM EDT 7:23 PM EDT
Civil Twilight 6:51 AM EDT 7:49 PM EDT
Nautical Twilight 6:20 AM EDT 8:20 PM EDT
Astronomical Twilight 5:48 AM EDT 8:52 PM EDT
Moon 2:04 AM EDT (9/24) 5:05 PM EDT (9/24)
Length of Visible Light 12h 58m
Length of Day
12h 04m
Waning Crescent, 23% of the Moon is Illuminated
Sep 24
Waning Crescent
Sep 28
New
Oct 5
First Quarter
Oct 13
Full
Oct 21
Last Quarter

Hourly Weather History & Observations

Time (EDT) Temp. Dew Point Humidity Pressure Visibility Wind Dir Wind Speed Gust Speed Precip Events Conditions
12:15 AM 58.3 °F 55.6 °F 91% 30.00 in 10.0 mi Calm Calm - N/A   Clear
12:35 AM 56.3 °F 56.3 °F 100% 30.00 in 10.0 mi Calm Calm - N/A   Clear
12:55 AM 56.7 °F 56.7 °F 100% 30.00 in 10.0 mi Calm Calm - N/A   Clear
1:15 AM 55.2 °F 55.2 °F 100% 30.01 in 10.0 mi Calm Calm - N/A   Clear
1:35 AM 53.6 °F 53.6 °F 100% 30.01 in 10.0 mi Calm Calm - N/A   Clear
1:55 AM 53.2 °F 53.2 °F 100% 30.01 in 10.0 mi Calm Calm - N/A   Clear
2:15 AM 52.3 °F 52.3 °F 100% 30.01 in 10.0 mi Calm Calm - N/A   Clear
2:35 AM 51.6 °F 51.6 °F 100% 30.01 in 10.0 mi Calm Calm - N/A   Clear
2:55 AM 52.0 °F 52.0 °F 100% 30.01 in 10.0 mi Calm Calm - N/A   Clear
3:15 AM 50.9 °F 50.9 °F 100% 30.01 in 10.0 mi Calm Calm - N/A   Clear
3:35 AM 50.4 °F 50.4 °F 100% 30.01 in 10.0 mi Calm Calm - N/A   Clear
3:55 AM 50.4 °F 50.4 °F 100% 30.01 in 2.5 mi Calm Calm - N/A   Clear
4:15 AM 49.8 °F 49.8 °F 100% 30.02 in 5.0 mi Calm Calm - N/A   Clear
4:35 AM 48.6 °F 48.6 °F 100% 30.02 in 1.8 mi Calm Calm - N/A   Mist
4:55 AM 48.2 °F 48.2 °F 100% 30.02 in 0.8 mi Calm Calm - N/A   Mist
5:15 AM 48.6 °F 48.6 °F 100% 30.02 in 1.0 mi Calm Calm - N/A   Mist
5:35 AM 47.5 °F 47.5 °F 100% 30.02 in 10.0 mi Calm Calm - N/A   Clear
5:55 AM 47.8 °F 47.8 °F 100% 30.02 in 5.0 mi Calm Calm - N/A   Clear
6:15 AM 47.5 °F 47.5 °F 100% 30.03 in 5.0 mi Calm Calm - N/A   Clear
6:35 AM 46.9 °F 46.9 °F 100% 30.03 in 10.0 mi Calm Calm - N/A   Clear
6:55 AM 46.8 °F 46.8 °F 100% 30.03 in 7.0 mi Calm Calm - N/A   Clear
7:15 AM 46.8 °F 46.8 °F 100% 30.04 in 10.0 mi Calm Calm - N/A   Clear
7:35 AM 47.3 °F 47.3 °F 100% 30.04 in 2.0 mi Calm Calm - N/A   Clear
7:55 AM 47.1 °F 47.1 °F 100% 30.04 in 10.0 mi Calm Calm - N/A   Clear
8:15 AM 49.5 °F 49.5 °F 100% 30.04 in 10.0 mi Calm Calm - N/A   Clear
8:35 AM 51.6 °F 51.6 °F 100% 30.05 in 10.0 mi Calm Calm - N/A   Clear
8:55 AM 54.0 °F 54.0 °F 100% 30.06 in 10.0 mi Calm Calm - N/A   Clear
9:15 AM 56.3 °F 55.8 °F 98% 30.06 in 10.0 mi Calm Calm - N/A   Clear
9:35 AM 59.2 °F 56.1 °F 90% 30.06 in 10.0 mi WSW 3.5 mph - N/A   Clear
9:55 AM 61.3 °F 53.8 °F 76% 30.07 in 10.0 mi West 3.5 mph - N/A   Clear
10:15 AM 63.5 °F 53.8 °F 71% 30.06 in 10.0 mi North 3.5 mph - N/A   Clear
10:35 AM 64.4 °F 53.2 °F 67% 30.06 in 10.0 mi NNW 3.5 mph - N/A   Clear
10:55 AM 65.5 °F 53.6 °F 65% 30.06 in 10.0 mi North 3.5 mph - N/A   Clear
11:15 AM 66.9 °F 53.2 °F 61% 30.06 in 10.0 mi North 4.6 mph - N/A   Clear
11:35 AM 68.5 °F 53.1 °F 58% 30.05 in 10.0 mi Calm Calm - N/A   Clear
11:55 AM 69.1 °F 51.6 °F 54% 30.04 in 10.0 mi NW 5.8 mph - N/A   Clear
12:15 PM 70.0 °F 51.6 °F 52% 30.04 in 10.0 mi Calm Calm - N/A   Clear
12:35 PM 71.1 °F 49.8 °F 47% 30.03 in 10.0 mi NNW 3.5 mph - N/A   Clear
12:55 PM 72.5 °F 47.8 °F 42% 30.03 in 10.0 mi North 6.9 mph - N/A   Clear
1:15 PM 72.1 °F 48.9 °F 44% 30.02 in 10.0 mi WNW 4.6 mph - N/A   Scattered Clouds
1:35 PM 73.0 °F 46.6 °F 39% 30.01 in 10.0 mi Calm Calm - N/A   Clear
1:55 PM 73.9 °F 46.2 °F 37% 30.00 in 10.0 mi NW 3.5 mph - N/A   Clear
2:15 PM 74.5 °F 47.3 °F 38% 30.00 in 10.0 mi NW 5.8 mph - N/A   Scattered Clouds
2:35 PM 75.4 °F 46.6 °F 36% 29.99 in 10.0 mi NNE 4.6 mph - N/A   Scattered Clouds
2:55 PM 74.7 °F 46.2 °F 36% 29.99 in 10.0 mi NNW 6.9 mph - N/A   Scattered Clouds
3:15 PM 72.9 °F 47.5 °F 40% 29.99 in 10.0 mi NNW 3.5 mph - N/A   Scattered Clouds
3:35 PM 75.7 °F 45.1 °F 34% 29.98 in 10.0 mi Calm Calm - N/A   Clear
3:55 PM 74.3 °F 45.1 °F 35% 29.97 in 10.0 mi Calm Calm - N/A   Clear
4:15 PM 75.6 °F 43.3 °F 32% 29.97 in 10.0 mi WNW 4.6 mph - N/A   Scattered Clouds
4:35 PM 75.6 °F 45.7 °F 35% 29.97 in 10.0 mi West 6.9 mph - N/A   Scattered Clouds
4:55 PM 75.6 °F 45.9 °F 35% 29.97 in 10.0 mi NW 4.6 mph - N/A   Clear
5:15 PM 75.0 °F 45.7 °F 35% 29.96 in 10.0 mi NW 4.6 mph - N/A   Clear
5:35 PM 74.5 °F 46.4 °F 37% 29.96 in 10.0 mi NW 5.8 mph - N/A   Clear
5:55 PM 74.3 °F 46.4 °F 37% 29.96 in 10.0 mi Calm Calm - N/A   Clear
6:15 PM 73.6 °F 46.0 °F 37% 29.96 in 10.0 mi Calm Calm - N/A   Clear
6:35 PM 72.9 °F 46.8 °F 39% 29.96 in 10.0 mi Calm Calm - N/A   Clear
6:55 PM 72.0 °F 48.0 °F 43% 29.96 in 10.0 mi Calm Calm - N/A   Clear
7:15 PM 66.6 °F 52.5 °F 61% 29.96 in 10.0 mi Calm Calm - N/A   Clear
7:35 PM 64.0 °F 52.9 °F 67% 29.96 in 10.0 mi Calm Calm - N/A   Clear
7:55 PM 62.8 °F 51.8 °F 67% 29.96 in 10.0 mi Calm Calm - N/A   Clear
8:15 PM 59.9 °F 52.5 °F 77% 29.96 in 10.0 mi Calm Calm - N/A   Clear
8:35 PM 59.0 °F 52.2 °F 78% 29.96 in 10.0 mi Calm Calm - N/A   Clear
8:55 PM 57.6 °F 51.8 °F 81% 29.96 in 10.0 mi Calm Calm - N/A   Clear
9:15 PM 56.8 °F 52.3 °F 85% 29.96 in 10.0 mi Calm Calm - N/A   Clear
9:35 PM 55.4 °F 51.6 °F 87% 29.95 in 10.0 mi Calm Calm - N/A   Clear
9:55 PM 55.2 °F 51.8 °F 88% 29.95 in 10.0 mi Calm Calm - N/A   Clear
10:15 PM 54.3 °F 53.1 °F 95% 29.96 in 10.0 mi Calm Calm - N/A   Clear
10:35 PM 54.1 °F 54.1 °F 100% 29.96 in 10.0 mi Calm Calm - N/A   Clear
10:55 PM 53.6 °F 53.6 °F 100% 29.96 in 10.0 mi Calm Calm - N/A   Clear
11:15 PM 53.6 °F 53.6 °F 100% 29.95 in 10.0 mi Calm Calm - N/A   Clear
11:35 PM 53.2 °F 53.2 °F 100% 29.95 in 10.0 mi Calm Calm - N/A   Clear
11:55 PM 52.7 °F 52.7 °F 100% 29.94 in 10.0 mi Calm Calm - N/A   Clear